Torna al catalogo

SL-8 R/B

AttivoPO
NORAD 11736·ROCKET BODY·🇷🇺 Russia

Lanciato Mar 17, 1980 da Plesetsk Cosmodrome

Loading…

Prossimi Passaggi (prossime 24 ore)

TLE

AggiornatoSource: Space-Track

Epoca: Sep 14, 2026, 04:15 UTC

1 11736U 80022B   26257.17770995  .00000089  00000-0  74790-4 0  9995
2 11736  82.9463 170.8617 0033824  14.2859 345.9247 13.76829013334993

Traccia SL-8 R/B in tempo reale con AllMySat

Download on the App Store